Amateur Radio Satellites - All Passes

Search period start: 20 May 2013 02:14
Search period end: 21 May 2013 02:14
Location: Camp Crooked Creek, 37.9149°N, 85.6607°W

Satellite Date Start Highest point End Downlink Frequencies (MHz)
Time Altitude Azimuth
Oscar 19 20 May 02:20:45 02:23:10 13° 91° (E) 02:25:34 437.125 CW, 437.150 USB
MaSat-1 20 May 02:21:13 02:27:15 29° 106° (ESE) 02:32:37 437.345 MHz
Oscar 16 20 May 02:57:33 03:02:23 38° 98° (E) 03:07:09 437.025 USB, Beacon 2401.1428
AO-27 20 May 02:59:24 03:03:54 29° 96° (E) 03:08:22 436.795 MHz FM
KITSAT 1 20 May 03:05:00 03:10:13 18° 324° (NW) 03:15:28 435.175 FM
ITAMSAT 1 20 May 03:06:43 03:11:24 33° 97° (E) 03:16:04 435.822 SSB
Uribyol 2 20 May 03:48:08 03:53:24 88° 104° (ESE) 03:58:38 436.500 FM
Oscar 19 20 May 03:57:49 04:02:57 65° 286° (WNW) 04:08:02 437.125 CW, 437.150 USB
MaSat-1 20 May 04:02:18 04:09:20 52° 297° (WNW) 04:15:14 437.345 MHz
ISS 20 May 04:07:08 04:10:10 35° 134° (SE) 04:13:15 145.800 FM
Uosat F 20 May 04:16:37 04:20:26 22° 95° (E) 04:24:14 435.120 FM
RS-15 20 May 04:22:18 04:32:40 49° 250° (WSW) 04:42:53 29.354 - 29.394 USB, Beacon 29.352 USB
AO-Echo 20 May 04:25:40 04:30:23 66° 102° (ESE) 04:35:11 ?
TMSAT-1 20 May 04:27:13 04:30:08 15° 91° (E) 04:33:04 436.925 FM
Oscar 10/S400 20 May 04:32:29 05:40:15 12° 73° (ENE) 06:33:35 145.825 - 145.975 CW/USB, Beacon 145.810 USB
Oscar 16 20 May 04:37:25 04:41:30 24° 294° (WNW) 04:45:34 437.025 USB, Beacon 2401.1428
AO-27 20 May 04:38:47 04:43:22 32° 292° (WNW) 04:47:57 436.795 MHz FM
Gurwin Techsat 1B 20 May 04:45:38 04:50:29 35° 97° (E) 04:55:18 435.225 FM
ITAMSAT 1 20 May 04:46:22 04:50:46 28° 293° (WNW) 04:55:09 435.822 SSB
Uribyol 2 20 May 05:30:36 05:32:06 11° 300° (WNW) 05:33:37 436.500 FM
ISS 20 May 05:44:06 05:46:56 25° 330° (NNW) 05:49:47 145.800 FM
Uosat F 20 May 05:54:41 05:59:21 39° 290° (WNW) 06:03:59 435.120 FM
TMSAT-1 20 May 06:05:13 06:10:28 61° 287° (WNW) 06:15:41 436.925 FM
AO-Echo 20 May 06:06:42 06:08:39 13° 297° (WNW) 06:10:36 ?
STRAND 1 20 May 06:07:47 06:11:07 18° 64° (ENE) 06:14:29 ?
AO-7 20 May 06:17:22 06:25:26 50° 101° (ESE) 06:33:26 29.400 - 29.500 MHz
Gurwin Techsat 1B 20 May 06:25:53 06:30:17 27° 293° (WNW) 06:34:40 435.225 FM
Saudisat 1A 20 May 06:29:48 06:33:24 23° 111° (ESE) 06:37:03 436.775 MHz
KITSAT 1 20 May 07:07:18 07:10:19 12° 27° (NNE) 07:13:20 435.175 FM
Hamsat 20 May 07:43:57 07:46:28 15° 92° (E) 07:48:58 145.90 MHz
STRAND 1 20 May 07:44:57 07:49:54 52° 260° (W) 07:54:52 ?
Sapphire 20 May 07:53:31 07:57:18 20° 105° (ESE) 08:01:06 437.095 MHz 1200 baud AX-25 AFSK
Saudisat 1A 20 May 08:08:42 08:12:54 36° 308° (NW) 08:17:10 436.775 MHz
AO-7 20 May 08:10:33 08:17:55 36° 299° (WNW) 08:25:18 29.400 - 29.500 MHz
SO-67 20 May 08:36:50 08:39:11 17° 94° (E) 08:41:32 435.3500 MHz FM
KITSAT 1 20 May 09:00:31 09:08:13 44° 52° (NE) 09:15:52 435.175 FM
PCSat 20 May 09:01:58 09:07:23 88° 116° (ESE) 09:12:50 145.825 MHz
SO-50 20 May 09:03:53 09:06:26 14° 108° (ESE) 09:08:59 436.795 FM
JAS-1B 20 May 09:06:54 09:12:40 43° 98° (E) 09:18:01 435.800 - 435.900 CW/SSB
Hamsat 20 May 09:18:36 09:22:43 43° 287° (WNW) 09:26:51 145.90 MHz
HO-68 20 May 09:33:23 09:34:50 11° 88° (E) 09:36:16 435.675 MHz FM
Sapphire 20 May 09:35:03 09:40:17 51° 302° (WNW) 09:45:35 437.095 MHz 1200 baud AX-25 AFSK
SO-67 20 May 10:09:39 10:12:38 25° 288° (WNW) 10:15:36 435.3500 MHz FM
ISS 20 May 10:37:23 10:40:19 27° 30° (NNE) 10:43:15 145.800 FM
SO-50 20 May 10:41:50 10:46:35 60° 303° (WNW) 10:51:17 436.795 FM
PCSat 20 May 10:48:34 10:51:33 15° 315° (NW) 10:54:32 145.825 MHz
KITSAT 1 20 May 10:56:04 11:03:32 42° 251° (WSW) 11:10:59 435.175 FM
JAS-1B 20 May 10:58:19 11:02:59 23° 298° (WNW) 11:07:22 435.800 - 435.900 CW/SSB
Oscar 11 20 May 11:09:20 11:13:27 40° 99° (E) 11:17:34 145.825 FM, Beacon 2401.500 USB
OPAL 20 May 11:10:45 11:14:14 19° 95° (E) 11:17:40 ?
HO-68 20 May 11:16:20 11:23:31 76° 105° (ESE) 11:30:41 435.675 MHz FM
JAS-2 20 May 11:24:51 11:31:51 70° 101° (E) 11:37:58 435.800 - 435.900 CW/SSB, 435.910 FM
Oscar 10/S400 20 May 11:56:36 13:19:00 14° 281° (WNW) 15:26:53 145.825 - 145.975 CW/USB, Beacon 145.810 USB
ISS 20 May 12:14:00 12:17:03 32° 226° (SW) 12:20:06 145.800 FM
UOSAT-12 20 May 12:20:23 12:24:10 27° 112° (ESE) 12:27:59 437.025 FM, 437.400 FM
Oscar 11 20 May 12:46:34 12:49:21 17° 294° (WNW) 12:52:07 145.825 FM, Beacon 2401.500 USB
OPAL 20 May 12:48:34 12:53:20 45° 291° (WNW) 12:58:02 ?
MaSat-1 20 May 12:50:28 12:53:40 40° 61° (ENE) 12:56:18 437.345 MHz
HO-68 20 May 13:05:33 13:10:26 20° 302° (WNW) 13:15:20 435.675 MHz FM
JAS-2 20 May 13:11:13 13:16:01 20° 301° (WNW) 13:20:28 435.800 - 435.900 CW/SSB, 435.910 FM
Uribyol 2 20 May 13:28:27 13:30:46 13° 61° (ENE) 13:33:05 436.500 FM
Oscar 19 20 May 13:35:50 13:39:13 18° 64° (ENE) 13:42:37 437.125 CW, 437.150 USB
PANSAT 20 May 13:59:51 14:02:13 16° 168° (SSE) 14:04:36 not established
UOSAT-12 20 May 14:00:14 14:04:14 30° 309° (NW) 14:08:16 437.025 FM, 437.400 FM
Oscar 16 20 May 14:12:48 14:17:45 47° 71° (ENE) 14:22:43 437.025 USB, Beacon 2401.1428
AO-27 20 May 14:15:58 14:20:40 36° 70° (ENE) 14:25:23 436.795 MHz FM
ITAMSAT 1 20 May 14:23:08 14:27:57 42° 71° (ENE) 14:32:49 435.822 SSB
Saudisat 1A 20 May 14:59:06 15:01:41 15° 43° (NE) 15:04:14 436.775 MHz
Uribyol 2 20 May 15:04:25 15:09:35 75° 257° (WSW) 15:14:47 436.500 FM
Oscar 19 20 May 15:13:02 15:18:07 54° 260° (W) 15:23:13 437.125 CW, 437.150 USB
Uosat F 20 May 15:28:28 15:32:31 25° 67° (ENE) 15:36:35 435.120 FM
AO-7 20 May 15:28:55 15:31:17 11° 46° (NE) 15:33:40 29.400 - 29.500 MHz
AO-Echo 20 May 15:37:02 15:41:56 71° 75° (ENE) 15:46:42 ?
PANSAT 20 May 15:39:05 15:41:59 20° 181° (S) 15:44:54 not established
TMSAT-1 20 May 15:46:13 15:50:03 21° 65° (ENE) 15:53:53 436.925 FM
Oscar 16 20 May 15:53:41 15:57:19 19° 267° (W) 16:00:59 437.025 USB, Beacon 2401.1428
AO-27 20 May 15:56:05 16:00:15 24° 265° (W) 16:04:26 436.795 MHz FM
ITAMSAT 1 20 May 16:03:44 16:07:36 21° 266° (W) 16:11:31 435.822 SSB
Gurwin Techsat 1B 20 May 16:05:01 16:10:04 46° 71° (ENE) 16:15:08 435.225 FM
RS-15 20 May 16:31:08 16:41:25 34° 105° (ESE) 16:51:20 29.354 - 29.394 USB, Beacon 29.352 USB
Saudisat 1A 20 May 16:37:22 16:41:54 71° 241° (WSW) 16:46:19 436.775 MHz
Sapphire 20 May 16:43:07 16:45:50 14° 44° (NE) 16:48:33 437.095 MHz 1200 baud AX-25 AFSK
Uosat F 20 May 17:06:39 17:11:09 34° 262° (W) 17:15:41 435.120 FM
AO-7 20 May 17:14:16 17:22:17 57° 67° (ENE) 17:30:21 29.400 - 29.500 MHz
PANSAT 20 May 17:19:39 17:21:45 14° 194° (SSW) 17:23:50 not established
AO-Echo 20 May 17:20:10 17:21:09 11° 269° (W) 17:22:08 ?
TMSAT-1 20 May 17:24:33 17:29:37 47° 261° (W) 17:34:43 436.925 FM
SO-50 20 May 17:38:07 17:38:50 10° 39° (NE) 17:39:33 436.795 FM
Gurwin Techsat 1B 20 May 17:46:26 17:50:15 20° 267° (W) 17:54:04 435.225 FM
PCSat 20 May 17:51:53 17:57:08 48° 58° (ENE) 18:02:21 145.825 MHz
Sapphire 20 May 18:24:37 18:30:05 86° 63° (ENE) 18:35:30 437.095 MHz 1200 baud AX-25 AFSK
RS-15 20 May 18:41:05 18:53:05 67° 305° (NW) 19:04:37 29.354 - 29.394 USB, Beacon 29.352 USB
AO-7 20 May 19:08:25 19:15:22 30° 264° (W) 19:22:24 29.400 - 29.500 MHz
SO-50 20 May 19:15:44 19:20:17 74° 58° (ENE) 19:24:45 436.795 FM
PCSat 20 May 19:36:10 19:40:11 21° 254° (WSW) 19:44:12 145.825 MHz
JAS-1B 20 May 19:47:07 19:55:42 43° 68° (ENE) 20:03:12 435.800 - 435.900 CW/SSB
STRAND 1 20 May 19:57:16 20:02:22 62° 101° (ESE) 20:07:27 ?
Hamsat 20 May 20:10:40 20:14:51 74° 259° (WSW) 20:19:05 145.90 MHz
Sapphire 20 May 20:11:31 20:12:42 11° 258° (WSW) 20:13:52 437.095 MHz 1200 baud AX-25 AFSK
SO-67 20 May 20:43:04 20:46:38 87° 78° (ENE) 20:50:14 435.3500 MHz FM
UOSAT-12 20 May 20:51:49 20:54:57 18° 46° (NE) 20:58:05 437.025 FM, 437.400 FM
RS-15 20 May 20:59:25 21:08:12 23° 332° (NNW) 21:16:46 29.354 - 29.394 USB, Beacon 29.352 USB
JAS-2 20 May 21:33:40 21:40:07 31° 64° (ENE) 21:46:42 435.800 - 435.900 CW/SSB, 435.910 FM
JAS-1B 20 May 21:37:06 21:46:03 45° 261° (W) 21:53:58 435.800 - 435.900 CW/SSB
STRAND 1 20 May 21:38:04 21:41:02 16° 297° (WNW) 21:43:59 ?
HO-68 20 May 21:42:51 21:49:37 48° 67° (ENE) 21:56:23 435.675 MHz FM
Oscar 11 20 May 22:03:25 22:07:01 26° 70° (ENE) 22:10:38 145.825 FM, Beacon 2401.500 USB
OPAL 20 May 22:23:35 22:28:04 30° 66° (ENE) 22:32:31 ?
UOSAT-12 20 May 22:30:57 22:35:28 56° 243° (WSW) 22:39:58 437.025 FM, 437.400 FM
JAS-2 20 May 23:17:10 23:24:36 57° 261° (W) 23:32:21 435.800 - 435.900 CW/SSB, 435.910 FM
RS-15 20 May 23:20:13 23:26:48 16° 9° (N) 23:33:14 29.354 - 29.394 USB, Beacon 29.352 USB
KITSAT 1 20 May 23:27:15 23:34:22 36° 108° (ESE) 23:41:32 435.175 FM
HO-68 20 May 23:31:23 23:37:27 30° 264° (W) 23:43:34 435.675 MHz FM
Oscar 11 20 May 23:39:42 23:43:11 24° 265° (W) 23:46:42 145.825 FM, Beacon 2401.500 USB
OPAL 21 May 00:02:15 00:06:51 31° 261° (W) 00:11:26 ?
KITSAT 1 21 May 01:21:46 01:29:30 49° 306° (NW) 01:37:20 435.175 FM
RS-15 21 May 01:33:41 01:43:52 38° 43° (NE) 01:53:44 29.354 - 29.394 USB, Beacon 29.352 USB
MaSat-1 21 May 01:39:25 01:43:31 16° 102° (ESE) 01:47:19 437.345 MHz

Developed and maintained by Chris Peat, Heavens-Above GmbH. Please read the updated FAQ before sending e-mail. Imprint. DLR
